Regional Weather Roundup
Issued by NWS Bismarck, ND

Home | Current Version | Previous Version | Text Only | Print | Product List | Glossary On
Versions: 1 2 3 4 5 6 7 8 9 10 11 12 13 14 15 16 17 18 19 20 21 22 23 24 25 26 27 28 29 30 31 32 33 34 35 36 37 38 39 40 41 42 43 44 45 46 47 48 49 50
000
ASUS43 KBIS 261102
RWRBIS

NWR BROADCAST TEXT
NATIONAL WEATHER SERVICE BISMARCK ND
600 AM CDT MON JUN 26 2017

NOTE: "FAIR" INDICATES FEW OR NO CLOUDS BELOW 12,000 FEET WITH NO
SIGNIFICANT WEATHER AND/OR OBSTRUCTIONS TO VISIBILITY.


CITY           SKY/WX    TMP DP  RH WIND       PRES   REMARKS
WILLISTON      CLEAR     45  41  86 NW3       30.24S
MINOT          CLEAR     43  39  86 SW3       30.24S
MINOT AFB      CLEAR     39  35  86 CALM      30.24R
BISMARCK       CLEAR     43  41  93 E3        30.26S
DICKINSON      CLEAR     43  40  89 SE8       30.24R
GARRISON         N/A     38  36  92 NE6       30.25R
HETTINGER ARPT CLEAR     45  40  82 SE6       30.27S
JAMESTOWN      CLEAR     43  40  89 CALM      30.24R
HAZEN          FAIR      37  37 100 SW5       30.28R
LINTON           N/A    N/A N/A N/A E6        30.27S FOG
MANDAN         FAIR      43  43 100 CALM      30.26S FOG
STANLEY        FAIR      43  43 100 CALM      30.28S
TIOGA          FAIR      41  41 100 E3        30.27S
WATFORD CITY   FAIR      39  37  93 CALM      30.24S
$$

CITY           SKY/WX    TMP DP  RH WIND       PRES   REMARKS
GRAND FORKS    CLEAR     43  41  93 W7        30.21R
GRAND FORKS AF PTCLDY    44  41  88 W8        30.21R
DEVILS LAKE    CLEAR     43  40  89 CALM      30.24S
FARGO          CLEAR     42  39  89 W3        30.22R
CAVALIER       FAIR      46  41  81 W8        30.20R
GRAFTON        FAIR      46  43  87 W6        30.22S
GWINNER        CLOUDY    45  39  81 CALM      30.23S
LANGDON        FAIR      41  41 100 CALM      30.23S
ROLLA            N/A     41  39  93 CALM      30.24S
$$

CITY           SKY/WX    TMP DP  RH WIND       PRES   REMARKS
ABERDEEN       CLEAR     39  39 100 CALM      30.24R
MOBRIDGE       CLEAR     43  39  86 CALM      30.23R
BUFFALO          N/A     49  40  71 SE8       30.17S
RAPID CITY     CLEAR     46  36  68 W3        30.25S
GLASGOW        CLEAR     53  40  61 E14       30.15S
WOLF POINT     CLEAR     47  40  76 E7        30.19F
GLENDIVE       CLEAR     50  39  66 E7        30.20F
MILES CITY     CLEAR     56  35  45 SE7       30.17S
BAKER          CLEAR     47  37  68 SE7       30.22S
$$

CITY           SKY/WX    TMP DP  RH WIND       PRES   REMARKS
BILLINGS       CLEAR     55  40  56 S3        30.15S
GREAT FALLS    CLEAR     53  40  61 S8        30.06F
$$





USA.gov is the U.S. government's official web portal to all federal, state and local government web resources and services.